sat.trackr.live / text

‹ back to catalog

STARLINK-3577

NORAD 51884 · 2022-022AJ

PAYLOAD ACTIVE UNKNOWN

§ Identity

Operator
Country
US
Launch date
2022-03-03
Launch site
AFETR
Launch vehicle
Mass (kg)
RCS (m²)

Purposes: comms

External: N2YO · Heavens-Above · Gunter

§ Orbital elements

Epoch: 2026-09-20T01:58:58.489824Z

Period
93.85 min
Inclination
53.1593°
Eccentricity
0.0001171
Mean motion
15.34395163 rev/d
Perigee alt
461.9 km
Apogee alt
463.5 km
Semi-major
6,840.9 km
B*
-4.3721e-5
RAAN
192.0138°
Arg perigee
90.0528°
Mean anomaly
270.0609°
Rev number
25,287

§ Raw data

STARLINK-35771 51884U 22022AJ  26263.08262141 -.00001853  00000+0 -43721-4 0  99962 51884  53.1593 192.0138 0001171  90.0528 270.0609 15.34395163252870

JSON: /api/v1/satellites/51884 · /tle

For live sub-satellite position, see the globe view (requires WebGL).

§ Visibility from observer

Set your observer location to see the next 7 days of passes ≥ 10°. The values pass through the URL so the page stays shareable.

No JS? Fill the form by hand. The geolocation button needs JavaScript.